[[{"header":{"parameterUnit":"m.s-1","parameterCategory":1,"la1":30.2991,"la2":30.254,"lo1":-89.0895,"lo2":-89.0444,"dy":0.0017,"dx":0.0017,"nx":28,"ny":28,"refTime":"2026-01-31T03:00:00:Z","depth":0,"parameterNumber":2,"parameterNumberName":"U-component_of_WINDS"},"data":[0,0,0,0,0,0,0,0,0,0,0,0,0,0,0,0,0,0,0,0,0,0,0,0,0,0,0,0,0,0,0,0,0,0,0,0,0,0,0,0,0,0,0,0,0,0,0,0,0,0,0,0,0,0,0,0,0,0,4.0412,4.0412,0,4.0446,4.0446,4.0447,4.0401,4.0399,4.0397,4.0396,4.0429,4.0431,4.0433,0,0,0,0,0,0,0,0,0,0,0,0,0,4.0305,4.0308,4.0412,4.0412,4.0412,4.0446,4.0446,4.0447,4.0401,4.0399,4.0397,4.0395,4.0428,4.0431,4.0433,0,0,0,0,0,0,0,0,0,0,0,0,0,4.0347,4.0308,4.0412,4.0394,4.0392,4.0446,4.0446,4.0447,4.0401,4.0399,4.0396,4.0394,4.0427,4.043,4.0434,4.0505,0,0,4.0445,4.0446,0,0,0,0,0,0,0,0,4.0345,4.0351,4.0396,4.0395,4.0394,4.0417,4.0421,4.0466,4.0402,4.0398,4.0396,4.0393,4.0426,4.043,4.0442,4.0507,4.0508,4.0445,4.0447,4.0449,4.045,0,0,0,0,0,0,0,4.0342,4.0349,4.0425,4.0397,4.0395,4.0384,4.0387,4.0429,4.0425,4.0398,4.0395,4.04,4.0425,4.0438,4.0442,4.0509,4.0445,4.0448,4.045,4.0452,4.0636,4.0639,0,0,0,0,0,0,4.0341,4.0347,4.0424,4.0426,4.0363,4.0388,4.0391,4.0412,4.0425,4.0425,4.0402,4.0397,4.0433,4.0438,4.0443,4.0528,4.0449,4.0452,4.0454,4.0633,4.0637,4.064,0,0,0,0,0,0,4.0339,4.0349,4.0423,4.0386,4.0394,4.0392,4.0416,4.0414,4.0427,4.0428,4.0427,4.0416,4.0432,4.0438,4.0491,4.0529,4.0454,4.0457,4.063,4.0635,4.0638,4.0699,0,0,0,0,0,0,4.0336,4.0348,4.0375,4.0387,4.0396,4.047,4.0418,4.0416,4.0433,4.0428,4.0441,4.044,4.043,4.0486,4.0494,4.0532,4.046,4.0627,4.0632,4.0637,4.0694,4.0705,4.0714,0,0,0,0,0,4.0333,4.039,4.0377,4.0386,4.0431,4.0472,4.0478,4.0466,4.0436,4.0464,4.0465,4.044,4.0524,4.0491,4.0501,4.0541,4.0624,4.0631,4.0637,4.0689,4.0703,4.0714,0,0,0,0,0,0,4.0382,4.0391,4.0377,4.044,4.0456,4.0465,4.0498,4.048,4.0504,4.0498,4.0481,4.0485,4.0541,4.0546,4.051,4.0611,4.0569,4.0577,4.0606,4.0619,4.0629,4.0626,4.0463,0,0,0,0,0,4.04,4.0434,4.044,4.0495,4.0504,4.0501,4.0518,4.0508,4.0523,4.053,4.0534,4.055,4.058,4.06,4.0627,4.0695,4.0697,4.0727,4.0737,4.0746,4.0753,4.079,4.0803,4.066,4.066,4.066,0,0,4.0438,4.0448,4.047,4.0506,4.0517,4.0552,4.0506,4.0545,4.0571,4.0535,4.0585,4.059,4.0606,4.0667,4.0694,4.0673,4.0793,4.0754,4.076,4.0763,4.0798,4.0811,4.0823,4.0664,4.0663,4.0663,0,0,4.0525,4.0536,4.0583,4.0596,4.0614,4.0612,4.0623,4.0636,4.0637,4.0688,4.0663,4.0693,4.0745,4.0758,4.0771,4.0866,4.0844,4.0876,4.0929,4.0965,4.0977,4.0987,4.102,4.1033,4.0883,4.0883,4.0883,0,4.0569,4.0622,4.061,4.0651,4.0668,4.0639,4.0687,4.07,4.0726,4.0738,4.0714,4.078,4.0789,4.0853,4.0876,4.0888,4.0901,4.0873,4.0976,4.0986,4.0995,4.1027,4.104,4.0887,4.0886,4.0886,4.0886,0,4.0676,4.0713,4.0749,4.0776,4.0797,4.0842,4.0836,4.0859,4.0848,4.0848,4.09,4.0911,4.094,4.0955,4.0943,4.1018,4.1004,4.0979,4.0936,4.1013,4.1042,4.1055,4.0892,4.0891,4.089,4.0889,0,0,4.0792,4.0814,4.0828,4.084,4.086,4.0888,4.0932,4.0962,4.0982,4.1001,4.1037,4.1083,4.1061,4.1076,4.1066,4.1098,4.1173,4.1069,4.1069,4.1087,4.1256,4.1275,4.1289,4.1159,4.1162,4.1163,4.1255,0,4.0879,4.0955,4.0947,4.1019,4.1054,4.1028,4.1066,4.1082,4.1084,4.1113,4.1115,4.1148,4.1115,4.1124,4.1155,4.1157,4.1207,4.1151,4.1192,4.1194,4.1188,4.1305,4.1324,4.1409,4.1266,4.1268,4.127,0,4.099,4.1015,4.1092,4.1107,4.1121,4.1156,4.1184,4.1212,4.123,4.1229,4.1248,4.1233,4.1277,4.1235,4.1295,4.1257,4.1274,4.1278,4.1281,4.1283,4.1236,4.131,4.1436,4.1449,4.1288,4.1287,4.1285,0,4.1067,4.1121,4.1173,4.1185,4.1205,4.123,4.1239,4.1254,4.1274,4.1298,4.1311,4.134,4.1355,4.1378,4.1371,4.1341,4.1433,4.139,4.1433,4.1434,4.1453,4.1451,4.1583,4.1465,4.1465,4.1465,4.1465,0,4.1165,4.1212,4.1209,4.1241,4.1294,4.1284,4.1337,4.1343,4.1358,4.1391,4.137,4.1402,4.1391,4.1422,4.1418,4.1469,4.1476,4.1476,4.1474,4.1478,4.1477,4.1487,4.1481,4.1468,4.1467,4.1467,4.1466,0,4.1259,4.1259,4.1315,4.133,4.1334,4.1373,4.1385,4.1416,4.1417,4.1459,4.1469,4.147,4.1506,4.1502,4.1541,4.1538,4.1602,4.1593,4.1596,4.1594,4.1637,4.1633,4.1779,4.1798,4.1668,4.167,4.1671,0,4.1321,4.1357,4.1377,4.1398,4.141,4.1444,4.1464,4.1456,4.1478,4.1503,4.1531,4.1565,4.1591,4.165,4.1654,4.1685,4.1676,4.1725,4.168,4.1683,4.1676,4.1674,4.1677,4.1733,4.1735,4.1736,4.1737,0,4.143,4.1429,4.1459,4.149,4.1515,4.1539,4.156,4.1579,4.1574,4.1599,4.1636,4.1657,4.1699,4.1733,4.1762,4.1771,4.1753,4.1752,4.1763,4.1766,4.1767,4.1767,4.1619,4.1748,4.1747,4.1746,4.1745,4.1745,4.151,4.1542,4.1561,4.1596,4.1612,4.1633,4.1663,4.1669,4.17,4.1733,4.1727,4.1769,4.1787,4.1825,4.1837,4.187,4.1852,4.1868,4.1873,4.1877,4.1882,4.1763,4.1875,4.1875,4.1874,4.1874,4.1874,0,4.1618,4.163,4.1662,4.1694,4.1722,4.1705,4.1728,4.1752,4.1789,4.1809,4.1836,4.1879,4.1913,4.1921,4.1953,4.1978,4.197,4.1986,4.1984,4.1986,4.1896,4.1883,4.1992,4.1992,4.1992,4.1992,4.1992,4.1992,4.1678,4.1731,4.1732,4.1793,4.1804,4.1845,4.186,4.188,4.1896,4.1945,4.1973,4.1979,4.1994,4.2028,4.2058,4.2059,4.2072,4.2091,4.2089,4.2004,4.1993,4.1981,4.1969,4.2094,4.2094,4.2177,4.2178,4.2178]},{"header":{"parameterUnit":"m.s-1","parameterCategory":1,"la1":30.2991,"la2":30.254,"lo1":-89.0895,"lo2":-89.0444,"dy":0.0017,"dx":0.0017,"nx":28,"ny":28,"refTime":"2026-01-31T03:00:00:Z","depth":0,"parameterNumber":3,"parameterNumberName":"V-component_of_WINDS"},"data":[0,0,0,0,0,0,0,0,0,0,0,0,0,0,0,0,0,0,0,0,0,0,0,0,0,0,0,0,0,0,0,0,0,0,0,0,0,0,0,0,0,0,0,0,0,0,0,0,0,0,0,0,0,0,0,0,0,0,-8.7305,-8.7307,0,-8.7498,-8.75,-8.7502,-8.7426,-8.7421,-8.7417,-8.7413,-8.7604,-8.7614,-8.7623,0,0,0,0,0,0,0,0,0,0,0,0,0,-8.6865,-8.6873,-8.7304,-8.7307,-8.7309,-8.7497,-8.75,-8.7503,-8.7427,-8.7421,-8.7416,-8.7411,-8.7601,-8.7612,-8.7624,0,0,0,0,0,0,0,0,0,0,0,0,0,-8.7057,-8.6876,-8.7304,-8.7294,-8.7295,-8.7497,-8.75,-8.7503,-8.7428,-8.7421,-8.7414,-8.7408,-8.7598,-8.7611,-8.7625,-8.7846,0,0,-8.7668,-8.7674,0,0,0,0,0,0,0,0,-8.7046,-8.7073,-8.7293,-8.7295,-8.7297,-8.7431,-8.7415,-8.7618,-8.743,-8.7377,-8.7413,-8.7405,-8.7552,-8.7569,-8.762,-8.7855,-8.7863,-8.7669,-8.7677,-8.7683,-8.7687,0,0,0,0,0,0,0,-8.7033,-8.7064,-8.7381,-8.7296,-8.7299,-8.7279,-8.7298,-8.7453,-8.75,-8.7381,-8.7376,-8.7401,-8.7551,-8.7607,-8.7624,-8.7866,-8.7668,-8.7681,-8.7689,-8.7695,-8.8293,-8.83,0,0,0,0,0,0,-8.702,-8.7054,-8.7374,-8.7386,-8.7152,-8.7292,-8.7314,-8.7395,-8.7498,-8.7507,-8.7406,-8.7396,-8.7586,-8.7608,-8.763,-8.7897,-8.7683,-8.7696,-8.7704,-8.8285,-8.8295,-8.8303,0,0,0,0,0,0,-8.7011,-8.7049,-8.7367,-8.7219,-8.7258,-8.7307,-8.7398,-8.7402,-8.7457,-8.7517,-8.7524,-8.7455,-8.7582,-8.7611,-8.7794,-8.7902,-8.7703,-8.7715,-8.8277,-8.8288,-8.8299,-8.8431,0,0,0,0,0,0,-8.6998,-8.7046,-8.7132,-8.7221,-8.7266,-8.7529,-8.7404,-8.7411,-8.7482,-8.7471,-8.7564,-8.7573,-8.7579,-8.7773,-8.7808,-8.7918,-8.7726,-8.8267,-8.8282,-8.8295,-8.8417,-8.8446,-8.847,0,0,0,0,0,-8.6983,-8.716,-8.7136,-8.7176,-8.7374,-8.7535,-8.756,-8.7565,-8.7491,-8.7577,-8.7616,-8.757,-8.7885,-8.7793,-8.7831,-8.7947,-8.826,-8.8278,-8.8294,-8.8406,-8.844,-8.8469,0,0,0,0,0,0,-8.7079,-8.7171,-8.7146,-8.7358,-8.744,-8.7522,-8.763,-8.7602,-8.7704,-8.769,-8.7689,-8.7711,-8.79,-8.7941,-8.7837,-8.8167,-8.8061,-8.8086,-8.8133,-8.8166,-8.8192,-8.8178,-8.7738,0,0,0,0,0,-8.7125,-8.725,-8.7323,-8.7502,-8.7545,-8.7581,-8.7651,-8.7648,-8.7732,-8.7766,-8.7817,-8.7899,-8.8016,-8.8093,-8.8204,-8.8423,-8.8442,-8.8521,-8.8548,-8.8569,-8.8591,-8.8711,-8.8747,-8.8358,-8.8358,-8.8358,0,0,-8.7221,-8.7287,-8.7365,-8.7523,-8.7586,-8.7715,-8.761,-8.775,-8.7845,-8.7786,-8.7963,-8.8004,-8.8094,-8.8297,-8.8388,-8.8337,-8.8703,-8.859,-8.8607,-8.8618,-8.8732,-8.8768,-8.8801,-8.837,-8.8368,-8.8366,0,0,-8.7461,-8.7524,-8.7681,-8.7747,-8.7845,-8.7868,-8.7906,-8.7994,-8.802,-8.8198,-8.8157,-8.8268,-8.847,-8.8537,-8.8598,-8.8866,-8.8828,-8.8902,-8.9039,-8.9156,-8.9186,-8.9213,-8.931,-8.9345,-8.8923,-8.8924,-8.8924,0,-8.7568,-8.7761,-8.7765,-8.7909,-8.798,-8.7935,-8.8094,-8.8157,-8.8285,-8.8335,-8.8276,-8.853,-8.8588,-8.8806,-8.8872,-8.8922,-8.8965,-8.8891,-8.9182,-8.9209,-8.9235,-8.9327,-8.9363,-8.8932,-8.8931,-8.893,-8.8929,0,-8.7888,-8.8022,-8.8137,-8.8266,-8.8349,-8.85,-8.8525,-8.8609,-8.8599,-8.8628,-8.881,-8.8879,-8.9004,-8.9055,-8.9045,-8.9272,-8.9237,-8.9181,-8.9075,-8.928,-8.9367,-8.9402,-8.8944,-8.8941,-8.8939,-8.8937,0,0,-8.8193,-8.8324,-8.8366,-8.8424,-8.8529,-8.8633,-8.8781,-8.8906,-8.8978,-8.9068,-8.9192,-8.9366,-8.9315,-8.9383,-8.9381,-8.9483,-8.9693,-8.9414,-8.9416,-8.9464,-8.9948,-8.9991,-9.0031,-8.9668,-8.9675,-8.968,-8.994,0,-8.8443,-8.8706,-8.8715,-8.8955,-8.9079,-8.9039,-8.9169,-8.9247,-8.9278,-8.9387,-8.942,-8.9544,-8.9466,-8.9508,-8.9607,-8.9646,-8.979,-8.9627,-8.9783,-8.9788,-8.9763,-9.0077,-9.0122,-9.0365,-8.9974,-8.998,-8.9984,0,-8.8769,-8.8873,-8.9127,-8.9216,-8.9268,-8.9385,-8.95,-8.9606,-8.9693,-8.9708,-8.9787,-8.977,-8.992,-8.981,-9.0017,-8.9906,-8.997,-8.9999,-9.0008,-9.0023,-8.9899,-9.0101,-9.0442,-9.0479,-9.0037,-9.0033,-9.0029,0,-8.8969,-8.9171,-8.9349,-8.94,-8.9508,-8.9591,-8.964,-8.9721,-8.9796,-8.9896,-8.9945,-9.006,-9.0124,-9.0213,-9.0227,-9.0145,-9.0436,-9.0326,-9.0453,-9.0453,-9.0516,-9.0512,-9.0873,-9.0556,-9.0556,-9.0555,-9.0554,0,-8.9247,-8.9404,-8.9441,-8.955,-8.9725,-8.9732,-8.9904,-8.9946,-9.0019,-9.0135,-9.0106,-9.0215,-9.0227,-9.034,-9.0351,-9.0522,-9.055,-9.0566,-9.0568,-9.057,-9.0568,-9.0612,-9.0596,-9.0565,-9.0562,-9.056,-9.0559,0,-8.9499,-8.953,-8.9722,-8.981,-8.9835,-8.996,-9.0034,-9.0139,-9.0167,-9.0315,-9.035,-9.0395,-9.0526,-9.0549,-9.0702,-9.071,-9.0914,-9.0898,-9.0886,-9.0884,-9.101,-9.0998,-9.1412,-9.1467,-9.1114,-9.1117,-9.112,0,-8.9675,-8.9796,-8.9897,-8.9974,-9.0028,-9.0152,-9.0229,-9.0241,-9.0322,-9.0432,-9.0523,-9.0652,-9.0755,-9.0966,-9.1011,-9.1129,-9.1115,-9.1253,-9.1133,-9.1131,-9.1119,-9.1112,-9.1124,-9.1276,-9.1279,-9.1282,-9.1285,0,-8.9985,-8.9995,-9.0109,-9.0229,-9.0323,-9.0417,-9.0506,-9.057,-9.0594,-9.0686,-9.0822,-9.0902,-9.1061,-9.1189,-9.1306,-9.1353,-9.1324,-9.1323,-9.1358,-9.1362,-9.1351,-9.136,-9.095,-9.1313,-9.131,-9.1308,-9.1307,-9.1305,-9.0205,-9.0311,-9.04,-9.0528,-9.0597,-9.0681,-9.0785,-9.0827,-9.0941,-9.1073,-9.1072,-9.1221,-9.1305,-9.146,-9.1516,-9.1631,-9.1587,-9.1638,-9.1651,-9.1664,-9.1677,-9.1332,-9.1652,-9.1651,-9.165,-9.165,-9.1649,0,-9.0515,-9.057,-9.0688,-9.0815,-9.0916,-9.0881,-9.0979,-9.1065,-9.1197,-9.1279,-9.1383,-9.1538,-9.1663,-9.1718,-9.1841,-9.1922,-9.1912,-9.1954,-9.1948,-9.196,-9.1709,-9.1666,-9.196,-9.196,-9.196,-9.196,-9.196,-9.196,-9.0687,-9.0865,-9.0886,-9.1097,-9.1151,-9.1298,-9.1357,-9.1434,-9.1501,-9.1677,-9.1781,-9.1817,-9.1889,-9.2017,-9.2129,-9.2142,-9.2189,-9.2238,-9.2245,-9.2009,-9.1977,-9.1947,-9.1907,-9.2248,-9.2248,-9.2486,-9.2489,-9.249]}]]